| time (UTC) | temp C | wind direction | speed KPH | gust KPH | rain 1hr cm | rain 24hr cm | rain mn cm | humidity % | barometer mb |
| 20260506230504 | 1 | 236 | 1.6 | 8.0 | 0.00 | 1.14 | 1.02 | 70 | 1016.3 |
| 20260506230005 | 1 | 111 | 0.0 | 4.8 | 0.00 | 1.14 | 1.02 | 73 | 1016.3 |
| 20260506230002 | 1 | 111 | 0.0 | 4.8 | 0.00 | 1.14 | 1.02 | 73 | 1019.1 |
| 20260506225504 | 1 | 111 | 1.6 | 4.8 | 0.00 | 1.14 | 1.02 | 75 | 1016.4 |
| 20260506225005 | 0 | 111 | 1.6 | 6.4 | 0.00 | 1.14 | 1.02 | 77 | 1016.4 |
| 20260506224511 | 0 | 111 | 3.2 | 6.4 | 0.00 | 1.14 | 1.02 | 77 | 1019.0 |
| 20260506224504 | 0 | 111 | 4.8 | 6.4 | 0.00 | 1.14 | 1.02 | 77 | 1016.3 |
| 20260506224005 | 0 | 111 | 1.6 | 4.8 | 0.00 | 1.14 | 1.02 | 78 | 1016.4 |
| 20260506223006 | 0 | 111 | 4.8 | 9.7 | 0.00 | 1.14 | 1.02 | 77 | 1016.5 |
| 20260506223002 | 0 | 111 | 3.2 | 9.7 | 0.00 | 1.14 | 1.02 | 77 | 1019.2 |
| 20260506222503 | 0 | 111 | 1.6 | 6.4 | 0.00 | 1.14 | 1.02 | 76 | 1016.6 |
| 20260506222005 | 1 | 111 | 3.2 | 4.8 | 0.00 | 1.14 | 1.02 | 73 | 1016.6 |
| 20260506221504 | 1 | 111 | 3.2 | 4.8 | 0.00 | 1.14 | 1.02 | 75 | 1016.6 |
| 20260506221502 | 1 | 111 | 1.6 | 4.8 | 0.00 | 1.14 | 1.02 | 75 | 1019.3 |
| 20260506221005 | 1 | 111 | 1.6 | 4.8 | 0.00 | 1.14 | 1.02 | 77 | 1016.6 |
| 20260506220504 | 0 | 111 | 1.6 | 4.8 | 0.00 | 1.14 | 1.02 | 77 | 1016.6 |
| 20260506220005 | 0 | 111 | 1.6 | 4.8 | 0.00 | 1.14 | 1.02 | 77 | 1016.6 |
| 20260506220003 | 0 | 111 | 0.0 | 4.8 | 0.00 | 1.14 | 1.02 | 77 | 1019.3 |
| 20260506215505 | 0 | 111 | 3.2 | 4.8 | 0.00 | 1.17 | 1.02 | 76 | 1016.7 |
| 20260506215005 | 0 | 111 | 3.2 | 6.4 | 0.00 | 1.17 | 1.02 | 75 | 1016.7 |
| 20260506214504 | 1 | 111 | 4.8 | 6.4 | 0.00 | 1.17 | 1.02 | 73 | 1016.7 |
| 20260506214502 | 1 | 111 | 3.2 | 6.4 | 0.00 | 1.17 | 1.02 | 73 | 1019.4 |
| 20260506214004 | 1 | 111 | 3.2 | 6.4 | 0.00 | 1.17 | 1.02 | 70 | 1017.0 |
| 20260506213505 | 2 | 23 | 1.6 | 4.8 | 0.00 | 1.17 | 1.02 | 71 | 1017.0 |
| 20260506213005 | 2 | 23 | 1.6 | 4.8 | 0.03 | 1.17 | 1.02 | 71 | 1017.0 |
| 20260506213002 | 2 | 23 | 1.6 | 4.8 | 0.03 | 1.17 | 1.02 | 71 | 1019.7 |
| 20260506212504 | 2 | 23 | 3.2 | 4.8 | 0.03 | 1.17 | 1.02 | 71 | 1017.0 |
| 20260506212005 | 2 | 23 | 1.6 | 8.0 | 0.03 | 1.17 | 1.02 | 72 | 1017.0 |
| 20260506211507 | 2 | 23 | 4.8 | 8.0 | 0.05 | 1.17 | 1.02 | 72 | 1019.6 |
| 20260506211504 | 2 | 23 | 4.8 | 8.0 | 0.05 | 1.17 | 1.02 | 72 | 1016.9 |
| 20260506210504 | 3 | 53 | 4.8 | 8.0 | 0.13 | 1.17 | 1.02 | 69 | 1016.9 |
| 20260506210006 | 3 | 29 | 4.8 | 6.4 | 0.15 | 1.17 | 1.02 | 70 | 1017.1 |
| 20260506210004 | 3 | 29 | 3.2 | 6.4 | 0.15 | 1.17 | 1.02 | 70 | 1019.7 |
| 20260506205505 | 3 | 29 | 3.2 | 6.4 | 0.20 | 1.19 | 1.02 | 72 | 1017.0 |
| 20260506205005 | 3 | 29 | 1.6 | 8.0 | 0.25 | 1.19 | 1.02 | 70 | 1017.0 |
| 20260506204503 | 2 | 29 | 4.8 | 8.0 | 0.30 | 1.19 | 1.02 | 70 | 1017.2 |
| 20260506204006 | 2 | 43 | 3.2 | 6.4 | 0.33 | 1.19 | 1.02 | 71 | 1017.3 |
| 20260506203504 | 2 | 43 | 1.6 | 9.7 | 0.36 | 1.17 | 0.99 | 72 | 1017.3 |
| 20260506203002 | 2 | 43 | 4.8 | 9.7 | 0.38 | 1.17 | 0.99 | 69 | 1020.1 |
| 20260506202504 | 3 | 54 | 6.4 | 9.7 | 0.41 | 1.17 | 0.99 | 69 | 1017.3 |
| 20260506202006 | 3 | 33 | 6.4 | 14.5 | 0.43 | 1.17 | 0.99 | 69 | 1017.4 |
| 20260506201504 | 3 | 38 | 8.0 | 12.9 | 0.43 | 1.14 | 0.97 | 71 | 1017.3 |
| 20260506201502 | 3 | 38 | 8.0 | 12.9 | 0.43 | 1.14 | 0.97 | 71 | 1020.0 |
| 20260506201004 | 2 | 22 | 8.0 | 12.9 | 0.46 | 1.12 | 0.94 | 73 | 1017.3 |
| 20260506200504 | 2 | 32 | 6.4 | 12.9 | 0.43 | 1.07 | 0.89 | 74 | 1017.3 |
| 20260506200006 | 2 | 49 | 8.0 | 14.5 | 0.43 | 1.04 | 0.86 | 75 | 1017.3 |
| 20260506200004 | 2 | 49 | 6.4 | 14.5 | 0.43 | 1.04 | 0.86 | 75 | 1020.0 |
| 20260506195504 | 2 | 30 | 9.7 | 14.5 | 0.41 | 1.02 | 0.81 | 76 | 1017.3 |
| 20260506195005 | 1 | 34 | 6.4 | 16.1 | 0.38 | 0.97 | 0.76 | 78 | 1017.3 |
| 20260506194504 | 1 | 22 | 8.0 | 17.7 | 0.36 | 0.91 | 0.71 | 79 | 1017.3 |
| 20260506194005 | 1 | 42 | 9.7 | 17.7 | 0.33 | 0.86 | 0.66 | 80 | 1017.3 |
| 20260506193504 | 0 | 51 | 6.4 | 14.5 | 0.33 | 0.81 | 0.61 | 81 | 1017.3 |
| 20260506193006 | 0 | 35 | 9.7 | 17.7 | 0.36 | 0.81 | 0.61 | 80 | 1017.3 |
| 20260506193003 | 0 | 42 | 8.0 | 17.7 | 0.36 | 0.81 | 0.61 | 80 | 1020.0 |
| 20260506192004 | 1 | 34 | 9.7 | 17.7 | 0.36 | 0.74 | 0.53 | 82 | 1017.3 |
| 20260506191504 | 1 | 9 | 11.3 | 17.7 | 0.36 | 0.71 | 0.51 | 81 | 1017.3 |
| 20260506191502 | 1 | 9 | 11.3 | 17.7 | 0.36 | 0.71 | 0.51 | 81 | 1019.9 |
| 20260506191004 | 0 | 32 | 12.9 | 19.3 | 0.36 | 0.69 | 0.48 | 81 | 1017.3 |
| 20260506190003 | 1 | 360 | 12.9 | 19.3 | 0.36 | 0.64 | 0.43 | 79 | 1020.1 |
| 20260506185504 | 1 | 20 | 12.9 | 19.3 | 0.33 | 0.66 | 0.41 | 80 | 1017.4 |
| 20260506185005 | 1 | 19 | 11.3 | 19.3 | 0.33 | 0.64 | 0.38 | 80 | 1017.5 |
| 20260506184504 | 1 | 16 | 16.1 | 19.3 | 0.33 | 0.61 | 0.36 | 81 | 1017.4 |
| 20260506184502 | 1 | 16 | 14.5 | 19.3 | 0.33 | 0.61 | 0.36 | 81 | 1020.1 |
| 20260506183504 | 1 | 20 | 14.5 | 19.3 | 0.25 | 0.53 | 0.28 | 81 | 1017.5 |
| 20260506183005 | 1 | 15 | 12.9 | 19.3 | 0.20 | 0.48 | 0.23 | 83 | 1017.5 |
| 20260506183002 | 1 | 15 | 12.9 | 19.3 | 0.20 | 0.48 | 0.23 | 83 | 1020.2 |
| 20260506182004 | 1 | 24 | 12.9 | 17.7 | 0.15 | 0.43 | 0.18 | 83 | 1017.3 |
| 20260506181505 | 1 | 28 | 11.3 | 16.1 | 0.13 | 0.41 | 0.15 | 83 | 1017.3 |
| 20260506181502 | 1 | 28 | 11.3 | 16.1 | 0.13 | 0.41 | 0.15 | 83 | 1019.9 |
| 20260506181005 | 1 | 48 | 8.0 | 16.1 | 0.10 | 0.38 | 0.13 | 84 | 1017.2 |
| 20260506180504 | 0 | 40 | 11.3 | 17.7 | 0.08 | 0.36 | 0.10 | 85 | 1017.3 |
| 20260506180006 | 0 | 36 | 9.7 | 17.7 | 0.05 | 0.33 | 0.08 | 85 | 1017.2 |
| 20260506180003 | 0 | 36 | 9.7 | 17.7 | 0.05 | 0.33 | 0.08 | 85 | 1019.9 |
| 20260506175504 | 0 | 42 | 9.7 | 17.7 | 0.03 | 0.33 | 0.05 | 86 | 1017.2 |
| 20260506175005 | 0 | 32 | 8.0 | 17.7 | 0.03 | 0.33 | 0.05 | 86 | 1017.3 |
| 20260506174502 | 0 | 52 | 9.7 | 17.7 | 0.00 | 0.30 | 0.03 | 86 | 1020.0 |
| 20260506174006 | 0 | 19 | 11.3 | 17.7 | 0.00 | 0.30 | 0.03 | 86 | 1017.4 |
| 20260506173503 | 0 | 5 | 12.9 | 17.7 | 0.00 | 0.30 | 0.03 | 87 | 1017.3 |
| 20260506173006 | 0 | 344 | 3.2 | 14.5 | 0.00 | 0.30 | 0.03 | 87 | 1017.2 |
| 20260506173002 | 0 | 344 | 1.6 | 14.5 | 0.00 | 0.30 | 0.03 | 87 | 1019.8 |
| 20260506172504 | 0 | 5 | 3.2 | 12.9 | 0.00 | 0.30 | 0.03 | 88 | 1017.1 |
| 20260506171505 | 0 | 19 | 11.3 | 16.1 | 0.00 | 0.30 | 0.03 | 88 | 1016.7 |
| 20260506171502 | 0 | 19 | 9.7 | 16.1 | 0.00 | 0.30 | 0.03 | 88 | 1019.4 |
| 20260506171005 | 0 | 360 | 6.4 | 16.1 | 0.00 | 0.30 | 0.03 | 89 | 1016.5 |
| 20260506170007 | 0 | 15 | 8.0 | 16.1 | 0.00 | 0.30 | 0.03 | 89 | 1016.7 |
| 20260506170002 | 0 | 15 | 8.0 | 16.1 | 0.00 | 0.30 | 0.03 | 89 | 1019.3 |
| 20260506165503 | 0 | 21 | 4.8 | 16.1 | 0.00 | 0.36 | 0.03 | 90 | 1016.7 |
| 20260506165005 | 0 | 22 | 8.0 | 16.1 | 0.00 | 0.36 | 0.03 | 90 | 1016.7 |
| 20260506164505 | 0 | 22 | 4.8 | 12.9 | 0.00 | 0.36 | 0.03 | 91 | 1016.7 |
| 20260506164006 | 0 | 5 | 3.2 | 14.5 | 0.00 | 0.36 | 0.03 | 91 | 1016.6 |
| 20260506163504 | 0 | 336 | 4.8 | 17.7 | 0.00 | 0.36 | 0.03 | 90 | 1016.5 |
| 20260506163006 | 0 | 5 | 4.8 | 9.7 | 0.00 | 0.36 | 0.03 | 91 | 1016.4 |
| 20260506163002 | 0 | 5 | 4.8 | 9.7 | 0.00 | 0.36 | 0.03 | 91 | 1019.0 |
| 20260506162503 | 0 | 5 | 6.4 | 9.7 | 0.00 | 0.36 | 0.03 | 91 | 1016.4 |
| 20260506162004 | 0 | 23 | 3.2 | 8.0 | 0.00 | 0.36 | 0.03 | 92 | 1016.5 |
| 20260506161502 | 0 | 23 | 3.2 | 8.0 | 0.03 | 0.36 | 0.03 | 92 | 1019.0 |
| 20260506161004 | 0 | 23 | 4.8 | 9.7 | 0.03 | 0.36 | 0.03 | 93 | 1016.5 |
| 20260506160504 | 0 | 360 | 4.8 | 9.7 | 0.03 | 0.36 | 0.03 | 92 | 1016.5 |
| 20260506160007 | 0 | 24 | 6.4 | 12.9 | 0.03 | 0.36 | 0.03 | 93 | 1016.3 |
| 20260506160002 | 0 | 24 | 6.4 | 12.9 | 0.03 | 0.36 | 0.03 | 93 | 1018.9 |
| 20260506155504 | 0 | 22 | 8.0 | 12.9 | 0.03 | 0.38 | 0.03 | 93 | 1016.4 |
| 20260506155006 | -1 | 19 | 9.7 | 12.9 | 0.03 | 0.38 | 0.03 | 93 | 1016.3 |
| 20260506154507 | -1 | 360 | 6.4 | 12.9 | 0.03 | 0.38 | 0.03 | 93 | 1019.0 |
| 20260506154005 | -1 | 355 | 3.2 | 9.7 | 0.03 | 0.38 | 0.03 | 93 | 1016.3 |
| 20260506153504 | -1 | 315 | 3.2 | 9.7 | 0.03 | 0.38 | 0.03 | 94 | 1016.2 |
| 20260506153002 | -1 | 26 | 0.0 | 0.0 | 0.03 | 0.38 | 0.03 | 94 | 1018.8 |
| 20260506152504 | -1 | 5 | 0.0 | 0.0 | 0.03 | 0.38 | 0.03 | 94 | 1016.0 |
| 20260506152004 | -1 | 9 | 0.0 | 0.0 | 0.00 | 0.36 | 0.00 | 94 | 1015.9 |
| 20260506151504 | -1 | 13 | 0.0 | 0.0 | 0.00 | 0.36 | 0.00 | 94 | 1015.9 |
| 20260506151502 | -1 | 13 | 0.0 | 0.0 | 0.00 | 0.36 | 0.00 | 94 | 1018.5 |
| 20260506151005 | -1 | 19 | 0.0 | 0.0 | 0.00 | 0.36 | 0.00 | 95 | 1015.8 |
| 20260506150505 | -1 | 24 | 0.0 | 1.6 | 0.00 | 0.36 | 0.00 | 95 | 1015.8 |
| 20260506150006 | -1 | 22 | 0.0 | 1.6 | 0.00 | 0.36 | 0.00 | 95 | 1015.8 |
| 20260506150003 | -1 | 22 | 0.0 | 1.6 | 0.00 | 0.36 | 0.00 | 95 | 1018.4 |
| 20260506145004 | -1 | 25 | 0.0 | 0.0 | 0.00 | 0.38 | 0.00 | 96 | 1015.8 |
| 20260506144504 | -1 | 14 | 0.0 | 0.0 | 0.00 | 0.38 | 0.00 | 96 | 1015.8 |
| 20260506144501 | -1 | 14 | 0.0 | 0.0 | 0.00 | 0.38 | 0.00 | 96 | 1018.4 |
| 20260506144004 | -1 | 14 | 0.0 | 0.0 | 0.00 | 0.38 | 0.00 | 96 | 1015.8 |
| 20260506143504 | -1 | 14 | 0.0 | 0.0 | 0.00 | 0.38 | 0.00 | 96 | 1015.8 |
| 20260506143002 | -2 | 14 | 0.0 | 0.0 | 0.00 | 0.38 | 0.00 | 96 | 1018.4 |
| 20260506142504 | -2 | 14 | 0.0 | 0.0 | 0.00 | 0.38 | 0.00 | 96 | 1015.7 |
| 20260506142005 | -2 | 14 | 0.0 | 0.0 | 0.00 | 0.38 | 0.00 | 96 | 1015.7 |
| 20260506141503 | -2 | 14 | 0.0 | 0.0 | 0.00 | 0.38 | 0.00 | 96 | 1018.2 |
| 20260506141005 | -2 | 14 | 0.0 | 0.0 | 0.00 | 0.38 | 0.00 | 96 | 1015.7 |
| 20260506140504 | -2 | 14 | 0.0 | 0.0 | 0.00 | 0.38 | 0.00 | 96 | 1015.7 |
| 20260506140006 | -2 | 14 | 0.0 | 0.0 | 0.00 | 0.38 | 0.00 | 97 | 1015.6 |
| 20260506140003 | -2 | 14 | 0.0 | 0.0 | 0.00 | 0.38 | 0.00 | 97 | 1018.2 |
| 20260506135504 | -2 | 14 | 0.0 | 0.0 | 0.00 | 0.41 | 0.00 | 97 | 1015.6 |
| 20260506135005 | -2 | 14 | 0.0 | 0.0 | 0.00 | 0.41 | 0.00 | 97 | 1015.7 |
| 20260506134505 | -2 | 14 | 0.0 | 0.0 | 0.00 | 0.41 | 0.00 | 97 | 1015.6 |
| 20260506134502 | -2 | 14 | 0.0 | 0.0 | 0.00 | 0.41 | 0.00 | 97 | 1018.1 |
| 20260506133505 | -2 | 24 | 0.0 | 0.0 | 0.00 | 0.41 | 0.00 | 97 | 1015.4 |
| 20260506133005 | -2 | 22 | 0.0 | 0.0 | 0.00 | 0.41 | 0.00 | 97 | 1015.2 |
| 20260506133001 | -2 | 22 | 0.0 | 0.0 | 0.00 | 0.41 | 0.00 | 97 | 1017.6 |
| 20260506132504 | -2 | 29 | 0.0 | 0.0 | 0.00 | 0.41 | 0.00 | 97 | 1015.1 |
| 20260506132005 | -2 | 29 | 0.0 | 0.0 | 0.00 | 0.41 | 0.00 | 97 | 1015.1 |
| 20260506131504 | -2 | 29 | 0.0 | 0.0 | 0.00 | 0.41 | 0.00 | 97 | 1017.3 |
| 20260506131005 | -2 | 38 | 0.0 | 0.0 | 0.00 | 0.41 | 0.00 | 97 | 1014.9 |
| 20260506130503 | -2 | 32 | 0.0 | 0.0 | 0.00 | 0.41 | 0.00 | 97 | 1014.8 |
| 20260506130003 | -2 | 32 | 0.0 | 0.0 | 0.00 | 0.41 | 0.00 | 97 | 1017.1 |
| 20260506125504 | -2 | 23 | 0.0 | 0.0 | 0.00 | 0.48 | 0.00 | 97 | 1014.8 |
| 20260506125005 | -2 | 40 | 0.0 | 0.0 | 0.00 | 0.48 | 0.00 | 97 | 1014.6 |
| 20260506124504 | -2 | 42 | 0.0 | 0.0 | 0.00 | 0.48 | 0.00 | 97 | 1014.6 |
| 20260506124501 | -2 | 42 | 0.0 | 0.0 | 0.00 | 0.48 | 0.00 | 97 | 1016.8 |
| 20260506124005 | -3 | 40 | 0.0 | 0.0 | 0.00 | 0.48 | 0.00 | 97 | 1014.4 |
| 20260506123503 | -3 | 32 | 0.0 | 0.0 | 0.00 | 0.48 | 0.00 | 97 | 1014.5 |
| 20260506123005 | -3 | 18 | 0.0 | 0.0 | 0.00 | 0.48 | 0.00 | 97 | 1014.5 |
| 20260506123003 | -3 | 18 | 0.0 | 0.0 | 0.00 | 0.48 | 0.00 | 97 | 1016.6 |
| 20260506122005 | -3 | 23 | 0.0 | 0.0 | 0.00 | 0.48 | 0.00 | 97 | 1014.3 |
| 20260506121504 | -3 | 15 | 0.0 | 0.0 | 0.00 | 0.48 | 0.00 | 97 | 1014.4 |
| 20260506121502 | -3 | 15 | 0.0 | 0.0 | 0.00 | 0.48 | 0.00 | 97 | 1016.5 |
| 20260506121004 | -3 | 22 | 0.0 | 0.0 | 0.00 | 0.48 | 0.00 | 97 | 1014.4 |
| 20260506120008 | -3 | 39 | 0.0 | 0.0 | 0.00 | 0.48 | 0.00 | 97 | 1016.2 |
| 20260506120006 | -3 | 39 | 0.0 | 0.0 | 0.00 | 0.48 | 0.00 | 97 | 1014.2 |
| 20260506115504 | -3 | 45 | 0.0 | 0.0 | 0.00 | 0.53 | 0.00 | 97 | 1014.1 |
| 20260506115005 | -3 | 49 | 0.0 | 0.0 | 0.00 | 0.53 | 0.00 | 97 | 1014.1 |
| 20260506114504 | -3 | 46 | 0.0 | 0.0 | 0.00 | 0.53 | 0.00 | 97 | 1014.0 |
| 20260506114502 | -3 | 46 | 0.0 | 0.0 | 0.00 | 0.53 | 0.00 | 97 | 1015.8 |
| 20260506114005 | -3 | 53 | 0.0 | 0.0 | 0.00 | 0.53 | 0.00 | 97 | 1014.0 |
| 20260506113503 | -3 | 42 | 0.0 | 0.0 | 0.00 | 0.53 | 0.00 | 97 | 1014.0 |
| 20260506113006 | -3 | 23 | 0.0 | 0.0 | 0.00 | 0.53 | 0.00 | 97 | 1014.0 |
| 20260506113002 | -3 | 23 | 0.0 | 0.0 | 0.00 | 0.53 | 0.00 | 97 | 1015.8 |
| 20260506112504 | -3 | 43 | 0.0 | 0.0 | 0.00 | 0.53 | 0.00 | 97 | 1014.1 |
| 20260506112004 | -3 | 31 | 0.0 | 0.0 | 0.00 | 0.53 | 0.00 | 97 | 1014.0 |
| 20260506111504 | -3 | 32 | 0.0 | 0.0 | 0.00 | 0.53 | 0.00 | 97 | 1014.0 |
| 20260506111502 | -3 | 32 | 0.0 | 0.0 | 0.00 | 0.53 | 0.00 | 97 | 1015.8 |
| 20260506111005 | -3 | 38 | 0.0 | 0.0 | 0.00 | 0.53 | 0.00 | 97 | 1013.9 |
| 20260506110504 | -3 | 34 | 0.0 | 0.0 | 0.00 | 0.53 | 0.00 | 97 | 1013.8 |
| 20260506110005 | -3 | 45 | 0.0 | 0.0 | 0.00 | 0.53 | 0.00 | 97 | 1013.8 |
| 20260506110002 | -3 | 45 | 0.0 | 0.0 | 0.00 | 0.53 | 0.00 | 97 | 1015.4 |
| 20260506105005 | -3 | 31 | 0.0 | 0.0 | 0.00 | 0.53 | 0.00 | 97 | 1013.8 |
| 20260506104504 | -3 | 25 | 0.0 | 0.0 | 0.00 | 0.53 | 0.00 | 97 | 1013.9 |
| 20260506104501 | -3 | 25 | 0.0 | 0.0 | 0.00 | 0.53 | 0.00 | 97 | 1015.4 |
| 20260506104005 | -3 | 20 | 0.0 | 0.0 | 0.00 | 0.53 | 0.00 | 97 | 1014.0 |
| 20260506103504 | -3 | 10 | 0.0 | 0.0 | 0.00 | 0.53 | 0.00 | 97 | 1013.8 |
| 20260506103005 | -3 | 19 | 0.0 | 0.0 | 0.00 | 0.53 | 0.00 | 97 | 1013.8 |
| 20260506103001 | -3 | 19 | 0.0 | 0.0 | 0.00 | 0.53 | 0.00 | 97 | 1015.4 |
| 20260506102503 | -3 | 29 | 0.0 | 0.0 | 0.00 | 0.53 | 0.00 | 97 | 1013.8 |
| 20260506102004 | -3 | 5 | 0.0 | 0.0 | 0.00 | 0.53 | 0.00 | 97 | 1013.7 |
| 20260506101505 | -2 | 15 | 0.0 | 0.0 | 0.00 | 0.53 | 0.00 | 97 | 1013.7 |
| 20260506101006 | -2 | 5 | 0.0 | 0.0 | 0.00 | 0.53 | 0.00 | 97 | 1013.7 |
| 20260506100504 | -2 | 5 | 0.0 | 0.0 | 0.00 | 0.53 | 0.00 | 97 | 1013.7 |
| 20260506100006 | -2 | 344 | 0.0 | 0.0 | 0.00 | 0.53 | 0.00 | 97 | 1013.6 |
| 20260506100002 | -2 | 344 | 0.0 | 0.0 | 0.00 | 0.53 | 0.00 | 97 | 1015.1 |
| 20260506095504 | -2 | 13 | 0.0 | 0.0 | 0.00 | 0.53 | 0.00 | 97 | 1013.5 |
| 20260506095005 | -2 | 14 | 0.0 | 0.0 | 0.00 | 0.53 | 0.00 | 97 | 1013.5 |
| 20260506094504 | -2 | 14 | 0.0 | 0.0 | 0.00 | 0.53 | 0.00 | 97 | 1013.5 |
| 20260506094501 | -2 | 14 | 0.0 | 0.0 | 0.00 | 0.53 | 0.00 | 97 | 1014.9 |
| 20260506094006 | -2 | 9 | 0.0 | 0.0 | 0.00 | 0.53 | 0.00 | 97 | 1013.4 |
| 20260506093504 | -2 | 348 | 0.0 | 0.0 | 0.00 | 0.53 | 0.00 | 97 | 1013.4 |
| 20260506093005 | -2 | 348 | 0.0 | 0.0 | 0.00 | 0.53 | 0.00 | 97 | 1013.4 |
| 20260506092504 | -2 | 20 | 0.0 | 0.0 | 0.00 | 0.53 | 0.00 | 97 | 1013.4 |
| 20260506092005 | -2 | 28 | 0.0 | 0.0 | 0.00 | 0.53 | 0.00 | 97 | 1013.4 |
| 20260506091504 | -2 | 11 | 0.0 | 0.0 | 0.00 | 0.53 | 0.00 | 97 | 1013.4 |
| 20260506091502 | -2 | 11 | 0.0 | 0.0 | 0.00 | 0.53 | 0.00 | 97 | 1014.6 |
| 20260506090503 | -2 | 16 | 0.0 | 0.0 | 0.00 | 0.53 | 0.00 | 97 | 1013.5 |
| 20260506090006 | -2 | 30 | 0.0 | 0.0 | 0.00 | 0.53 | 0.00 | 97 | 1013.5 |
| 20260506090001 | -2 | 30 | 0.0 | 0.0 | 0.00 | 0.53 | 0.00 | 97 | 1014.6 |
| 20260506085504 | -2 | 360 | 0.0 | 0.0 | 0.00 | 0.56 | 0.00 | 97 | 1013.6 |
| 20260506085004 | -2 | 345 | 0.0 | 0.0 | 0.00 | 0.56 | 0.00 | 97 | 1013.6 |
| 20260506084558 | -2 | 336 | 0.0 | 0.0 | 0.00 | 0.56 | 0.00 | 97 | 1014.7 |
| 20260506084459 | -2 | 336 | 0.0 | 0.0 | 0.00 | 0.56 | 0.00 | 97 | 1013.7 |
| 20260506084004 | -2 | 342 | 0.0 | 0.0 | 0.00 | 0.56 | 0.00 | 97 | 1013.6 |
| 20260506083504 | -2 | 333 | 0.0 | 0.0 | 0.00 | 0.56 | 0.00 | 97 | 1013.6 |
| 20260506083004 | -2 | 336 | 0.0 | 0.0 | 0.00 | 0.56 | 0.00 | 97 | 1013.5 |
| 20260506082504 | -2 | 347 | 0.0 | 0.0 | 0.00 | 0.56 | 0.00 | 97 | 1013.4 |
| 20260506082004 | -2 | 15 | 0.0 | 0.0 | 0.00 | 0.56 | 0.00 | 97 | 1013.5 |
| 20260506081504 | -2 | 346 | 0.0 | 0.0 | 0.00 | 0.56 | 0.00 | 97 | 1013.5 |
| 20260506081502 | -2 | 346 | 0.0 | 0.0 | 0.00 | 0.56 | 0.00 | 97 | 1014.5 |
| 20260506080504 | -2 | 317 | 0.0 | 0.0 | 0.00 | 0.56 | 0.00 | 97 | 1013.5 |
| 20260506073006 | -2 | 26 | 0.0 | 0.0 | 0.00 | 0.56 | 0.00 | 97 | 1013.4 |
| 20260506072504 | -2 | 335 | 0.0 | 0.0 | 0.00 | 0.56 | 0.00 | 97 | 1013.4 |
| 20260506072006 | -2 | 337 | 0.0 | 0.0 | 0.00 | 0.56 | 0.00 | 97 | 1013.3 |
| 20260506071503 | -2 | 342 | 0.0 | 0.0 | 0.00 | 0.56 | 0.00 | 97 | 1013.4 |
| 20260506071007 | -2 | 345 | 0.0 | 0.0 | 0.00 | 0.56 | 0.00 | 97 | 1013.4 |
| 20260506062506 | -2 | 351 | 0.0 | 0.0 | 0.00 | 0.58 | 0.00 | 97 | 1013.1 |
| 20260506062006 | -2 | 10 | 0.0 | 0.0 | 0.00 | 0.58 | 0.00 | 97 | 1013.1 |
| 20260506061506 | -2 | 334 | 0.0 | 0.0 | 0.00 | 0.58 | 0.00 | 97 | 1013.1 |
| 20260506061504 | -2 | 334 | 0.0 | 0.0 | 0.00 | 0.58 | 0.00 | 97 | 1013.2 |
| 20260506061006 | -2 | 334 | 0.0 | 0.0 | 0.00 | 0.58 | 0.00 | 97 | 1013.0 |
| 20260506060505 | -2 | 5 | 0.0 | 0.0 | 0.00 | 0.58 | 0.00 | 97 | 1013.0 |
| 20260506051028 | -1 | 355 | 0.0 | 1.6 | 0.00 | 0.64 | 0.58 | 97 | 1012.8 |
| 20260506050505 | -1 | 15 | 0.0 | 6.4 | 0.00 | 0.64 | 0.58 | 97 | 1012.7 |
| 20260506045005 | -1 | 30 | 0.0 | 4.8 | 0.00 | 0.71 | 0.58 | 97 | 1012.6 |
| 20260506044503 | -1 | 350 | 0.0 | 6.4 | 0.00 | 0.71 | 0.58 | 97 | 1012.2 |
| 20260506044005 | -1 | 350 | 0.0 | 3.2 | 0.00 | 0.71 | 0.58 | 97 | 1012.6 |
| 20260506043505 | -1 | 326 | 0.0 | 3.2 | 0.00 | 0.71 | 0.58 | 97 | 1012.7 |
| 20260506043006 | -1 | 342 | 1.6 | 3.2 | 0.00 | 0.71 | 0.58 | 96 | 1012.7 |
| 20260506043003 | -1 | 342 | 0.0 | 3.2 | 0.00 | 0.71 | 0.58 | 96 | 1012.3 |
| 20260506042505 | -1 | 342 | 0.0 | 3.2 | 0.00 | 0.71 | 0.58 | 96 | 1012.7 |
| 20260506042003 | -1 | 342 | 1.6 | 3.2 | 0.00 | 0.71 | 0.58 | 97 | 1012.7 |
| 20260506041509 | -1 | 337 | 0.0 | 3.2 | 0.00 | 0.71 | 0.58 | 97 | 1012.1 |
| 20260506041505 | -1 | 337 | 1.6 | 3.2 | 0.00 | 0.71 | 0.58 | 97 | 1012.7 |
| 20260506040505 | -1 | 5 | 0.0 | 4.8 | 0.00 | 0.71 | 0.58 | 97 | 1012.5 |
| 20260506040006 | -1 | 28 | 0.0 | 6.4 | 0.00 | 0.71 | 0.58 | 96 | 1011.7 |
| 20260506035504 | -1 | 32 | 1.6 | 6.4 | 0.00 | 0.71 | 0.58 | 96 | 1012.5 |
| 20260506035005 | -1 | 5 | 1.6 | 4.8 | 0.00 | 0.71 | 0.58 | 96 | 1012.5 |
| 20260506034505 | -1 | 338 | 0.0 | 3.2 | 0.00 | 0.71 | 0.58 | 96 | 1012.5 |
| 20260506034502 | -1 | 338 | 0.0 | 3.2 | 0.00 | 0.71 | 0.58 | 96 | 1011.7 |
| 20260506034005 | -1 | 350 | 1.6 | 3.2 | 0.00 | 0.71 | 0.58 | 97 | 1012.3 |
| 20260506033505 | -1 | 19 | 1.6 | 6.4 | 0.00 | 0.71 | 0.58 | 96 | 1012.3 |
| 20260506033006 | -1 | 19 | 3.2 | 6.4 | 0.00 | 0.71 | 0.58 | 96 | 1012.3 |
| 20260506033003 | -1 | 19 | 3.2 | 6.4 | 0.00 | 0.71 | 0.58 | 96 | 1011.3 |
| 20260506032006 | -1 | 13 | 1.6 | 6.4 | 0.00 | 0.71 | 0.58 | 97 | 1012.1 |
| 20260506031504 | -1 | 15 | 3.2 | 6.4 | 0.00 | 0.71 | 0.58 | 96 | 1012.0 |
| 20260506031006 | -1 | 360 | 1.6 | 8.0 | 0.00 | 0.71 | 0.58 | 96 | 1011.9 |
| 20260506030505 | -1 | 13 | 4.8 | 8.0 | 0.00 | 0.71 | 0.58 | 96 | 1011.8 |
| 20260506030007 | -1 | 40 | 0.0 | 4.8 | 0.00 | 0.71 | 0.58 | 96 | 1010.4 |
| 20260506025505 | -1 | 25 | 3.2 | 4.8 | 0.00 | 0.71 | 0.58 | 96 | 1011.6 |
| 20260506024507 | -1 | 13 | 1.6 | 8.0 | 0.00 | 0.71 | 0.58 | 96 | 1009.9 |
| 20260506024505 | -1 | 13 | 1.6 | 8.0 | 0.00 | 0.71 | 0.58 | 96 | 1011.2 |
| 20260506024005 | -1 | 13 | 0.0 | 8.0 | 0.00 | 0.71 | 0.58 | 96 | 1011.1 |
| 20260506023504 | -1 | 13 | 1.6 | 8.0 | 0.00 | 0.71 | 0.58 | 96 | 1011.1 |
| 20260506023006 | -1 | 333 | 1.6 | 6.4 | 0.00 | 0.71 | 0.58 | 96 | 1011.1 |
| 20260506023003 | -1 | 333 | 0.0 | 6.4 | 0.00 | 0.71 | 0.58 | 96 | 1009.6 |
| 20260506022504 | -1 | 20 | 4.8 | 6.4 | 0.00 | 0.71 | 0.58 | 96 | 1011.1 |
| 20260506022006 | -1 | 22 | 0.0 | 6.4 | 0.00 | 0.71 | 0.58 | 96 | 1011.0 |
| 20260506021504 | -1 | 22 | 1.6 | 6.4 | 0.00 | 0.71 | 0.58 | 96 | 1010.9 |
| 20260506021502 | -1 | 22 | 1.6 | 6.4 | 0.00 | 0.71 | 0.58 | 96 | 1009.2 |
| 20260506021005 | 0 | 22 | 1.6 | 6.4 | 0.00 | 0.71 | 0.58 | 96 | 1010.7 |
| 20260506020504 | 0 | 34 | 3.2 | 4.8 | 0.00 | 0.71 | 0.58 | 96 | 1010.6 |
| 20260506020006 | 0 | 10 | 1.6 | 6.4 | 0.00 | 0.71 | 0.58 | 96 | 1010.6 |
| 20260506015006 | 0 | 19 | 4.8 | 12.9 | 0.00 | 0.71 | 0.58 | 96 | 1010.4 |
| 20260506014504 | 0 | 23 | 6.4 | 8.0 | 0.00 | 0.71 | 0.58 | 96 | 1010.2 |
| 20260506014502 | 0 | 23 | 4.8 | 8.0 | 0.00 | 0.71 | 0.58 | 96 | 1008.3 |
| 20260506013002 | 0 | 22 | 1.6 | 8.0 | 0.00 | 0.71 | 0.58 | 96 | 1008.3 |
| 20260506012504 | 0 | 23 | 4.8 | 8.0 | 0.00 | 0.71 | 0.58 | 96 | 1010.3 |
| 20260506012006 | 0 | 24 | 4.8 | 8.0 | 0.00 | 0.71 | 0.58 | 96 | 1010.2 |
| 20260506011504 | 0 | 20 | 4.8 | 8.0 | 0.00 | 0.71 | 0.58 | 96 | 1010.0 |
| 20260506010505 | 0 | 33 | 6.4 | 8.0 | 0.00 | 0.71 | 0.58 | 96 | 1010.0 |
| 20260506010006 | 0 | 32 | 3.2 | 6.4 | 0.00 | 0.71 | 0.58 | 96 | 1010.0 |
| 20260506010003 | 0 | 32 | 1.6 | 6.4 | 0.00 | 0.71 | 0.58 | 96 | 1007.7 |
| 20260506005504 | 0 | 37 | 3.2 | 6.4 | 0.03 | 0.71 | 0.58 | 96 | 1010.1 |
| 20260506005005 | 0 | 51 | 1.6 | 6.4 | 0.03 | 0.71 | 0.58 | 96 | 1010.1 |
| 20260506004504 | 0 | 51 | 3.2 | 6.4 | 0.05 | 0.71 | 0.58 | 96 | 1009.9 |
| 20260506004005 | 0 | 59 | 4.8 | 6.4 | 0.05 | 0.71 | 0.58 | 96 | 1009.9 |
| 20260506003504 | 0 | 77 | 4.8 | 6.4 | 0.08 | 0.71 | 0.58 | 96 | 1009.9 |
| 20260506003007 | 0 | 109 | 3.2 | 9.7 | 0.08 | 0.71 | 0.58 | 95 | 1007.3 |
| 20260506003005 | 0 | 109 | 3.2 | 9.7 | 0.08 | 0.71 | 0.58 | 95 | 1009.9 |
| 20260506001504 | 0 | 88 | 9.7 | 14.5 | 0.10 | 0.71 | 0.58 | 95 | 1009.7 |
| 20260506001502 | 0 | 88 | 9.7 | 14.5 | 0.10 | 0.71 | 0.58 | 95 | 1006.9 |
| 20260506001015 | 0 | 93 | 9.7 | 14.5 | 0.10 | 0.71 | 0.58 | 94 | 1009.7 |
| 20260506000505 | 0 | 90 | 9.7 | 12.9 | 0.13 | 0.71 | 0.58 | 94 | 1009.9 |
| 20260506000006 | 1 | 86 | 6.4 | 11.3 | 0.13 | 0.71 | 0.58 | 95 | 1009.9 |
| 20260506000002 | 1 | 86 | 4.8 | 11.3 | 0.13 | 0.71 | 0.58 | 95 | 1007.0 |
| 20260505235504 | 1 | 87 | 6.4 | 14.5 | 0.10 | 0.69 | 0.56 | 95 | 1009.8 |
| 20260505235002 | 1 | 105 | 8.0 | 14.5 | 0.10 | 0.69 | 0.56 | 95 | 1009.6 |
| 20260505234503 | 1 | 109 | 8.0 | 12.9 | 0.08 | 0.66 | 0.53 | 95 | 1006.6 |
| 20260505234005 | 1 | 92 | 6.4 | 12.9 | 0.08 | 0.66 | 0.53 | 95 | 1009.7 |
| 20260505233505 | 1 | 117 | 9.7 | 12.9 | 0.05 | 0.64 | 0.51 | 95 | 1009.7 |
| 20260505233006 | 1 | 109 | 8.0 | 14.5 | 0.05 | 0.64 | 0.51 | 95 | 1009.7 |
| 20260505233002 | 1 | 109 | 8.0 | 14.5 | 0.05 | 0.64 | 0.51 | 95 | 1006.6 |
| 20260505232504 | 1 | 115 | 9.7 | 14.5 | 0.05 | 0.64 | 0.51 | 95 | 1009.5 |
| 20260505232005 | 1 | 105 | 6.4 | 16.1 | 0.03 | 0.61 | 0.48 | 95 | 1009.4 |
| 20260505231504 | 1 | 112 | 9.7 | 17.7 | 0.03 | 0.61 | 0.48 | 95 | 1009.3 |
| 20260505231006 | 1 | 101 | 14.5 | 17.7 | 0.03 | 0.61 | 0.48 | 95 | 1009.3 |